Date String (YYYY-MM-DD hh:mm:ss) UTC,Instrument flags,Ambient pressure (hPa),Sample flow (lpm),Bypass flow (lpm),Sample temperature (°C),Ambient temperature (°C),ASC tube jacket temperature (°C),LED temperature (°C),Box temperature (°C),Sample RH (%),Span deviation,Mass concentration (μg/m³),Mass concentration (μg/m³),Mass concentration (μg/m³)
DateTimeUTC,F1_M11,P_M11,Q1_M11,Q2_M11,T1_M11,T2_M11,T3_M11,T4_M11,T5_M11,U1_M11,ZSPAN_M11,X0_M11,X2_M11,X1_M11
2022-01-10 21:00:00,,0836.7,5.00,0.00,28.6,27.9,00.0,37.4,30.4,06.2,0000.0,0005.28,0001.59,0001.19
2022-01-10 21:01:00,,0836.7,5.00,0.00,28.6,28.0,00.0,37.5,30.5,06.2,0000.0,0005.32,0001.64,0001.24
2022-01-10 21:02:00,,0836.7,4.99,0.00,28.6,28.0,00.0,37.5,30.5,06.5,0000.0,0005.54,0001.67,0001.27
2022-01-10 21:03:00,,0836.7,5.01,0.00,28.6,28.0,00.0,37.5,30.5,06.5,0000.0,0004.70,0001.68,0001.29
2022-01-10 21:04:00,,0836.7,4.99,0.00,28.7,28.0,00.0,37.5,30.5,06.4,0000.0,0004.61,0001.72,0001.33
2022-01-10 21:05:00,,0836.8,5.00,0.00,28.7,28.0,00.0,37.5,30.5,06.3,0000.0,0004.24,0001.83,0001.38
2022-01-10 21:06:00,,0836.7,5.01,0.00,28.7,28.1,00.0,37.5,30.6,06.2,0000.0,0004.01,0001.95,0001.46
2022-01-10 21:07:00,,0836.7,4.99,0.00,28.7,28.1,00.0,37.6,30.6,06.2,0000.0,0004.76,0002.06,0001.52
2022-01-10 21:08:00,,0836.7,5.00,0.00,28.7,28.1,00.0,37.6,30.6,06.3,0000.0,0005.09,0002.17,0001.60
2022-01-10 21:09:00,,0836.7,5.00,0.00,28.8,28.1,00.0,37.6,30.6,06.3,0000.0,0005.36,0002.24,0001.65
2022-01-10 21:10:00,,0836.7,5.01,0.00,28.8,28.1,00.0,37.6,30.6,06.3,0000.0,0005.41,0002.31,0001.71
2022-01-10 21:11:00,,0836.7,4.99,0.00,28.8,28.1,00.0,37.6,30.6,06.3,0000.0,0005.44,0002.39,0001.77
2022-01-10 21:12:00,,0836.7,5.01,0.00,28.8,28.1,00.0,37.7,30.7,06.4,0000.0,0006.63,0002.49,0001.82
2022-01-10 21:13:00,,0836.7,4.99,0.00,28.8,28.2,00.0,37.7,30.7,06.3,0000.0,0006.95,0002.60,0001.89
2022-01-10 21:14:00,,0836.7,5.01,0.00,28.8,28.2,00.0,37.7,30.7,06.3,0000.0,0007.05,0002.71,0001.96
2022-01-10 21:15:00,,0836.7,4.99,0.00,28.8,28.2,00.0,37.7,30.7,06.3,0000.0,0007.13,0002.81,0002.04
2022-01-10 21:16:00,,0836.6,5.00,0.00,28.9,28.2,00.0,37.7,30.8,06.3,0000.0,0007.28,0002.90,0002.12
2022-01-10 21:17:00,,0836.6,5.00,0.00,28.9,28.2,00.0,37.8,30.8,06.4,0000.0,0007.19,0002.95,0002.18
2022-01-10 21:18:00,,0836.6,5.00,0.00,28.9,28.2,00.0,37.8,30.8,06.5,0000.0,0006.69,0002.98,0002.27
2022-01-10 21:19:00,,0836.7,5.01,0.00,28.9,28.2,00.0,37.8,30.8,06.8,0000.0,0007.40,0003.02,0002.30
2022-01-10 21:20:00,,0836.6,4.99,0.00,28.9,28.3,00.0,37.8,30.8,06.4,0000.0,0007.66,0003.11,0002.36
2022-01-10 21:21:00,,0836.7,4.99,0.00,28.9,28.3,00.0,37.8,30.8,06.8,0000.0,0007.74,0003.16,0002.42
2022-01-10 21:22:00,,0836.6,5.02,0.00,29.0,28.3,00.0,37.8,30.8,06.8,0000.0,0007.76,0003.17,0002.44
2022-01-10 21:23:00,,0836.6,5.00,0.00,29.0,28.3,00.0,37.9,30.8,06.4,0000.0,0007.10,0003.21,0002.51
2022-01-10 21:24:00,,0836.6,4.99,0.00,29.0,28.3,00.0,37.9,30.8,06.2,0000.0,0007.36,0003.29,0002.63
2022-01-10 21:25:00,,0836.6,5.02,0.00,29.0,28.3,00.0,37.9,30.8,06.3,0000.0,0008.09,0003.42,0002.75
2022-01-10 21:26:00,,0836.6,4.99,0.00,29.0,28.3,00.0,37.9,30.9,06.2,0000.0,0008.40,0003.52,0002.86
2022-01-10 21:27:00,,0836.6,4.99,0.00,29.0,28.3,00.0,37.9,30.9,06.3,0000.0,0008.56,0003.60,0002.94
2022-01-10 21:28:00,,0836.6,5.01,0.00,29.0,28.3,00.0,37.9,30.9,06.3,0000.0,0008.71,0003.67,0003.04
2022-01-10 21:29:00,,0836.6,5.00,0.00,29.1,28.3,00.0,37.9,30.9,06.1,0000.0,0008.81,0003.74,0003.11
2022-01-10 21:30:00,,0836.6,5.00,0.00,29.1,28.4,00.0,38.0,30.9,06.2,0000.0,0008.62,0003.87,0003.20
2022-01-10 21:31:00,,0836.6,5.00,0.00,29.1,28.4,00.0,38.0,30.9,06.4,0000.0,0008.67,0003.94,0003.26
2022-01-10 21:32:00,,0836.6,5.00,0.00,29.1,28.4,00.0,38.0,30.9,06.2,0000.0,0008.88,0004.03,0003.32
2022-01-10 21:33:00,,0836.6,5.00,0.00,29.1,28.4,00.0,38.0,30.9,05.8,0000.0,0009.14,0004.15,0003.43
2022-01-10 21:34:00,,0836.5,5.01,0.00,29.1,28.5,00.0,38.0,30.9,06.1,0000.0,0009.38,0004.25,0003.51
2022-01-10 21:35:00,,0836.5,4.99,0.00,29.1,28.5,00.0,38.0,31.0,06.3,0000.0,0009.18,0004.28,0003.54
2022-01-10 21:36:00,,0836.5,5.01,0.00,29.2,28.5,00.0,38.0,31.0,06.6,0000.0,0008.73,0004.25,0003.55
2022-01-10 21:37:00,,0836.5,5.00,0.00,29.2,28.5,00.0,38.0,31.0,06.7,0000.0,0008.62,0004.26,0003.56
2022-01-10 21:38:00,,0836.5,5.00,0.00,29.2,28.5,00.0,38.1,31.0,06.0,0000.0,0009.21,0004.30,0003.62
2022-01-10 21:39:00,,0836.5,5.00,0.00,29.2,28.6,00.0,38.1,31.0,05.7,0000.0,0009.64,0004.46,0003.72
2022-01-10 21:40:00,,0836.5,4.99,0.00,29.2,28.6,00.0,38.1,31.0,06.0,0000.0,0010.29,0004.58,0003.81
2022-01-10 21:41:00,,0836.5,5.00,0.00,29.2,28.6,00.0,38.1,31.1,05.8,0000.0,0011.36,0004.65,0003.88
2022-01-10 21:42:00,,0836.5,5.00,0.00,29.3,28.6,00.0,38.1,31.1,05.9,0000.0,0011.79,0004.73,0003.94
2022-01-10 21:43:00,,0836.5,4.99,0.00,29.3,28.6,00.0,38.2,31.1,05.9,0000.0,0011.95,0004.80,0003.99
2022-01-10 21:44:00,,0836.5,4.99,0.00,29.3,28.6,00.0,38.2,31.1,06.1,0000.0,0011.98,0004.84,0004.01
2022-01-10 21:45:00,,0836.5,5.00,0.00,29.3,28.6,00.0,38.2,31.1,06.3,0000.0,0011.89,0004.83,0004.00
2022-01-10 21:46:00,,0836.5,5.02,0.00,29.3,28.6,00.0,38.2,31.1,06.2,0000.0,0012.04,0004.88,0004.02
2022-01-10 21:47:00,,0836.4,4.99,0.00,29.3,28.6,00.0,38.2,31.1,06.3,0000.0,0012.10,0004.91,0004.04
2022-01-10 21:48:00,,0836.4,5.01,0.00,29.3,28.7,00.0,38.2,31.1,06.2,0000.0,0012.48,0005.00,0004.09
2022-01-10 21:49:00,,0836.5,5.01,0.00,29.4,28.7,00.0,38.2,31.2,06.1,0000.0,0013.14,0005.04,0004.09
2022-01-10 21:50:00,,0836.4,4.98,0.00,29.4,28.7,00.0,38.3,31.2,05.9,0000.0,0013.23,0005.03,0004.07
2022-01-10 21:51:00,,0836.4,5.01,0.00,29.4,28.7,00.0,38.3,31.2,05.9,0000.0,0012.85,0004.99,0004.04
2022-01-10 21:52:00,,0836.4,4.99,0.00,29.4,28.7,00.0,38.3,31.2,05.8,0000.0,0011.81,0005.04,0004.05
2022-01-10 21:53:00,,0836.4,5.00,0.00,29.4,28.7,00.0,38.3,31.2,05.6,0000.0,0011.58,0005.06,0004.08
2022-01-10 21:54:00,,0836.4,5.01,0.00,29.4,28.7,00.0,38.3,31.2,05.5,0000.0,0012.01,0005.17,0004.17
2022-01-10 21:55:00,,0836.3,5.01,0.00,29.4,28.8,00.0,38.3,31.2,05.5,0000.0,0013.77,0005.30,0004.28
2022-01-10 21:56:00,,0836.3,4.99,0.00,29.5,28.8,00.0,38.3,31.3,05.5,0000.0,0014.64,0005.43,0004.38
2022-01-10 21:57:00,,0836.3,5.00,0.00,29.5,28.8,00.0,38.4,31.3,05.7,0000.0,0015.40,0005.58,0004.50
2022-01-10 21:58:00,,0836.2,4.99,0.00,29.5,28.8,00.0,38.4,31.3,05.8,0000.0,0015.86,0005.79,0004.64
2022-01-10 21:59:00,,0836.3,5.01,0.00,29.5,28.8,00.0,38.4,31.3,05.8,0000.0,0017.18,0006.02,0004.82
